DLH648 UACC-EDDF

Flight info

Callsign DLH648
Flight time N/A
Altitude 34000
Route VETUB2A VETUB P574 OGANU N55 MASAV N161 GASBI/N0480F360 N161 LEYLA T916 MATAL M11 REBLO UM11 CRM UL746 INB/N0467F380 UL746 ODERO DCT OPT DCT SOKRU DCT ARSIN DCT LNZ DCT SUBEN DCT AKINI T161 DEBHI DEBHI1C
Aircraft A343/H-SDE2E3FGHIJ4J5M1RWXY/LB1D1

Departure

Time 2026-05-08 11:55
Airport Nursultan Nazarbayev International Airport (UACC)

Arrival

Time N/A
Airport Frankfurt Main Airport (EDDF)
Time Latitude Longitude Altitude Speed Heading
2026-05-08 11:20 51.02832 71.46553 1167 ft 0 kts 315°
2026-05-08 11:41 51.02831 71.46555 1167 ft 2 kts 315°
2026-05-08 11:41 51.02813 71.46584 1163 ft 4 kts 315°
2026-05-08 11:42 51.02794 71.46615 1163 ft 4 kts 314°
2026-05-08 11:42 51.02778 71.46642 1163 ft 4 kts 297°
2026-05-08 11:42 51.02776 71.46677 1163 ft 4 kts 232°
2026-05-08 11:42 51.02793 71.46704 1163 ft 1 kts 225°
2026-05-08 11:43 51.02796 71.46710 1163 ft 0 kts 225°
2026-05-08 11:47 51.02785 71.46692 1163 ft 4 kts 224°
2026-05-08 11:47 51.02754 71.46644 1165 ft 8 kts 224°
2026-05-08 11:48 51.02706 71.46571 1163 ft 11 kts 224°
2026-05-08 11:48 51.02646 71.46469 1164 ft 14 kts 237°
2026-05-08 11:48 51.02616 71.46310 1164 ft 16 kts 251°
2026-05-08 11:48 51.02540 71.46171 1164 ft 18 kts 226°
2026-05-08 11:49 51.02456 71.46098 1163 ft 13 kts 178°
2026-05-08 11:49 51.02395 71.46086 1164 ft 8 kts 210°
2026-05-08 11:49 51.02343 71.46015 1166 ft 10 kts 226°
2026-05-08 11:49 51.02286 71.45923 1164 ft 14 kts 225°
2026-05-08 11:50 51.02219 71.45819 1166 ft 13 kts 225°
2026-05-08 11:50 51.02155 71.45718 1167 ft 13 kts 224°
2026-05-08 11:50 51.02094 71.45623 1163 ft 12 kts 225°
2026-05-08 11:50 51.02032 71.45604 1165 ft 8 kts 154°
2026-05-08 11:51 51.01991 71.45656 1164 ft 7 kts 145°
2026-05-08 11:51 51.01951 71.45659 1164 ft 7 kts 195°
2026-05-08 11:51 51.01884 71.45578 1167 ft 19 kts 224°
2026-05-08 11:51 51.01776 71.45409 1163 ft 22 kts 224°
2026-05-08 11:52 51.01667 71.45242 1165 ft 21 kts 225°
2026-05-08 11:52 51.01565 71.45081 1165 ft 21 kts 224°
2026-05-08 11:52 51.01463 71.44924 1164 ft 20 kts 224°
2026-05-08 11:52 51.01367 71.44772 1164 ft 19 kts 225°
2026-05-08 11:53 51.01275 71.44696 1166 ft 9 kts 163°
2026-05-08 11:53 51.01217 71.44768 1167 ft 12 kts 134°
2026-05-08 11:53 51.01167 71.44863 1166 ft 9 kts 115°
2026-05-08 11:53 51.01182 71.44937 1165 ft 8 kts 55°
2026-05-08 11:54 51.01193 71.44956 1168 ft 0 kts 45°
2026-05-08 11:54 51.01223 71.45005 1167 ft 26 kts 45°
2026-05-08 11:54 51.01497 71.45433 1165 ft 82 kts 44°
2026-05-08 11:55 51.02026 71.46255 1166 ft 129 kts 45°
2026-05-08 11:55 51.02769 71.47417 1169 ft 168 kts 46°
2026-05-08 11:55 51.03600 71.48777 1596 ft 171 kts 47°
2026-05-08 11:55 51.04300 71.50386 1776 ft 197 kts 75°
2026-05-08 11:56 51.04117 71.52669 1831 ft 226 kts 120°
2026-05-08 11:56 51.03221 71.54804 2419 ft 234 kts 126°
2026-05-08 11:56 51.02354 71.56951 3344 ft 229 kts 122°
2026-05-08 11:56 51.01579 71.59157 4028 ft 229 kts 119°
2026-05-08 11:57 51.00852 71.61457 4499 ft 238 kts 117°
2026-05-08 11:57 51.00122 71.63932 4757 ft 257 kts 116°
2026-05-08 11:57 50.99138 71.66393 4983 ft 271 kts 138°
2026-05-08 11:57 50.97489 71.67792 5440 ft 273 kts 173°
2026-05-08 11:58 50.95633 71.67481 5996 ft 271 kts 206°
2026-05-08 11:58 50.94217 71.65584 6606 ft 270 kts 239°
2026-05-08 11:58 50.93625 71.62778 7214 ft 270 kts 260°
2026-05-08 11:59 50.92088 71.57414 8435 ft 272 kts 233°
2026-05-08 11:59 50.90927 71.55034 9063 ft 274 kts 233°
2026-05-08 11:59 50.89742 71.52657 9666 ft 276 kts 233°
2026-05-08 11:59 50.88550 71.50270 10201 ft 277 kts 233°
2026-05-08 12:00 50.87358 71.47881 10784 ft 277 kts 233°
2026-05-08 12:00 50.86160 71.45478 11318 ft 278 kts 233°
2026-05-08 12:00 50.84959 71.43070 11866 ft 279 kts 233°
2026-05-08 12:00 50.83753 71.40655 12414 ft 280 kts 233°
2026-05-08 12:01 50.82530 71.38241 12936 ft 282 kts 230°
2026-05-08 12:01 50.81173 71.35970 13433 ft 285 kts 226°
2026-05-08 12:01 50.79752 71.33762 13925 ft 287 kts 226°
2026-05-08 12:01 50.78321 71.31560 14353 ft 289 kts 226°
2026-05-08 12:02 50.76876 71.29335 14756 ft 291 kts 226°
2026-05-08 12:02 50.75422 71.27095 15187 ft 293 kts 226°
2026-05-08 12:02 50.73958 71.24839 15614 ft 295 kts 226°
2026-05-08 12:02 50.72465 71.22540 16048 ft 297 kts 226°
2026-05-08 12:03 50.70985 71.20260 16458 ft 300 kts 226°
2026-05-08 12:03 50.69467 71.17922 16652 ft 310 kts 226°
2026-05-08 12:03 50.67893 71.15508 16829 ft 321 kts 226°
2026-05-08 12:03 50.66265 71.13013 17008 ft 332 kts 226°
2026-05-08 12:04 50.64583 71.10439 17188 ft 342 kts 226°
2026-05-08 12:04 50.62850 71.07787 17375 ft 353 kts 226°
2026-05-08 12:04 50.61063 71.05057 17561 ft 363 kts 226°
2026-05-08 12:04 50.59251 71.02211 17745 ft 373 kts 229°
2026-05-08 12:05 50.57769 70.98833 17963 ft 380 kts 244°
2026-05-08 12:05 50.57002 70.94838 18314 ft 386 kts 262°
2026-05-08 12:05 50.57081 70.90603 18665 ft 393 kts 278°
2026-05-08 12:05 50.57712 70.86410 19098 ft 396 kts 282°
2026-05-08 12:06 50.58438 70.82217 19479 ft 398 kts 282°
2026-05-08 12:06 50.59167 70.78008 19872 ft 400 kts 282°
2026-05-08 12:06 50.59891 70.73770 20259 ft 402 kts 282°
2026-05-08 12:06 50.60610 70.69511 20640 ft 404 kts 282°
2026-05-08 12:07 50.61329 70.65221 21019 ft 406 kts 282°
2026-05-08 12:07 50.62046 70.60921 21424 ft 407 kts 281°
2026-05-08 12:07 50.62766 70.56588 21780 ft 409 kts 281°
2026-05-08 12:07 50.63494 70.52184 22155 ft 411 kts 281°
2026-05-08 12:08 50.64216 70.47809 22466 ft 415 kts 281°
2026-05-08 12:08 50.64943 70.43389 22760 ft 418 kts 281°
2026-05-08 12:08 50.65672 70.38943 23117 ft 420 kts 281°
2026-05-08 12:08 50.66403 70.34477 23469 ft 422 kts 281°
2026-05-08 12:09 50.67131 70.29984 23757 ft 423 kts 280°
2026-05-08 12:09 50.67660 70.25434 24040 ft 422 kts 273°
2026-05-08 12:09 50.67725 70.20824 24332 ft 420 kts 264°
2026-05-08 12:09 50.67277 70.16284 24624 ft 419 kts 254°
2026-05-08 12:10 50.66463 70.11861 24905 ft 420 kts 251°
2026-05-08 12:10 50.65514 70.07502 25169 ft 421 kts 249°
2026-05-08 12:10 50.64498 70.03164 25456 ft 423 kts 249°
2026-05-08 12:10 50.63457 69.98819 25730 ft 424 kts 249°
2026-05-08 12:11 50.62417 69.94473 26004 ft 425 kts 249°
2026-05-08 12:11 50.61383 69.90107 26271 ft 426 kts 249°
2026-05-08 12:11 50.60355 69.85722 26531 ft 427 kts 249°
2026-05-08 12:11 50.59331 69.81329 26805 ft 428 kts 249°
2026-05-08 12:12 50.58309 69.76924 27068 ft 429 kts 249°
2026-05-08 12:12 50.57284 69.72506 27311 ft 430 kts 249°
2026-05-08 12:12 50.56256 69.68082 27538 ft 431 kts 249°
2026-05-08 12:12 50.55223 69.63647 27791 ft 433 kts 249°
2026-05-08 12:13 50.54184 69.59199 28035 ft 433 kts 249°
2026-05-08 12:13 50.53143 69.54753 28294 ft 434 kts 249°
2026-05-08 12:13 50.52097 69.50299 28513 ft 435 kts 249°
2026-05-08 12:13 50.51033 69.45775 28755 ft 435 kts 249°
2026-05-08 12:14 50.49996 69.41376 29096 ft 434 kts 249°
2026-05-08 12:14 50.48951 69.36950 29471 ft 431 kts 249°
2026-05-08 12:14 50.47907 69.32540 29803 ft 430 kts 249°
2026-05-08 12:14 50.46866 69.28151 30096 ft 428 kts 249°
2026-05-08 12:15 50.45826 69.23773 30325 ft 428 kts 249°
2026-05-08 12:15 50.44772 69.19342 30538 ft 428 kts 249°
2026-05-08 12:15 50.43731 69.14985 30798 ft 426 kts 249°
2026-05-08 12:15 50.42691 69.10638 31024 ft 425 kts 249°
2026-05-08 12:16 50.41662 69.06349 31223 ft 425 kts 249°
2026-05-08 12:16 50.40960 69.03426 31357 ft 425 kts 249°
2026-05-08 12:16 50.39918 68.99098 31565 ft 424 kts 249°
2026-05-08 12:16 50.38874 68.94766 31759 ft 424 kts 249°
2026-05-08 12:17 50.37833 68.90454 31951 ft 423 kts 249°
2026-05-08 12:17 50.36790 68.86143 32145 ft 423 kts 249°
2026-05-08 12:17 50.35747 68.81843 32325 ft 422 kts 249°
2026-05-08 12:17 50.34702 68.77542 32527 ft 422 kts 249°
2026-05-08 12:18 50.33658 68.73250 32690 ft 422 kts 249°
2026-05-08 12:18 50.32613 68.68963 32857 ft 422 kts 249°
2026-05-08 12:18 50.31565 68.64677 33038 ft 421 kts 249°
2026-05-08 12:18 50.30518 68.60397 33228 ft 420 kts 249°
2026-05-08 12:19 50.29472 68.56132 33383 ft 420 kts 249°
2026-05-08 12:19 50.28423 68.51866 33544 ft 420 kts 249°
2026-05-08 12:19 50.27376 68.47612 33697 ft 419 kts 249°
2026-05-08 12:19 50.26326 68.43356 33829 ft 419 kts 249°
2026-05-08 12:20 50.24254 68.34981 33870 ft 407 kts 249°
2026-05-08 12:20 50.22218 68.26775 33841 ft 404 kts 249°
2026-05-08 12:21 50.20365 68.18520 33870 ft 401 kts 251°
2026-05-08 12:21 50.18619 68.10210 33867 ft 400 kts 251°
2026-05-08 12:22 50.16860 68.01976 33867 ft 400 kts 251°
2026-05-08 12:22 50.15071 67.93769 33879 ft 400 kts 250°
2026-05-08 12:23 50.13268 67.85578 33866 ft 399 kts 250°
2026-05-08 12:23 50.11458 67.77388 33870 ft 399 kts 250°
2026-05-08 12:24 50.09646 67.69219 33877 ft 399 kts 250°
2026-05-08 12:24 50.07826 67.61041 33874 ft 399 kts 250°
2026-05-08 12:25 50.06002 67.52875 33891 ft 399 kts 250°
2026-05-08 12:25 50.04173 67.44723 33876 ft 398 kts 250°
2026-05-08 12:26 50.02343 67.36593 33859 ft 398 kts 250°
2026-05-08 12:26 50.00506 67.28467 33881 ft 398 kts 250°
2026-05-08 12:27 49.98664 67.20346 33881 ft 399 kts 250°
2026-05-08 12:27 49.96814 67.12227 33874 ft 398 kts 249°
2026-05-08 12:28 49.94738 67.04273 33886 ft 397 kts 245°
2026-05-08 12:28 49.92432 66.96469 33873 ft 397 kts 245°
2026-05-08 12:29 49.90146 66.88673 33892 ft 397 kts 245°
2026-05-08 12:29 49.87897 66.80844 33877 ft 397 kts 245°
2026-05-08 12:30 49.85660 66.73007 33894 ft 397 kts 245°
2026-05-08 12:30 49.83421 66.65181 33890 ft 397 kts 245°
2026-05-08 12:31 49.81176 66.57371 33884 ft 397 kts 245°
2026-05-08 12:31 49.78924 66.49565 33889 ft 397 kts 245°
2026-05-08 12:32 49.76655 66.41724 33883 ft 397 kts 245°
2026-05-08 12:32 49.74394 66.33938 33883 ft 397 kts 245°
2026-05-08 12:33 49.72165 66.26133 33883 ft 397 kts 245°
2026-05-08 12:33 49.69972 66.18305 33884 ft 397 kts 245°
2026-05-08 12:34 49.67771 66.10476 33883 ft 397 kts 245°
2026-05-08 12:34 49.65558 66.02663 33896 ft 397 kts 245°
2026-05-08 12:35 49.63336 65.94860 33890 ft 397 kts 245°
2026-05-08 12:35 49.61109 65.87061 33891 ft 397 kts 245°
2026-05-08 12:36 49.58878 65.79276 33896 ft 397 kts 245°
2026-05-08 12:36 49.56641 65.71496 33891 ft 397 kts 245°
2026-05-08 12:37 49.54397 65.63718 33887 ft 397 kts 245°
2026-05-08 12:37 49.52149 65.55946 33887 ft 397 kts 245°
2026-05-08 12:38 49.49894 65.48176 33894 ft 398 kts 244°
2026-05-08 12:38 49.47631 65.40407 33888 ft 398 kts 244°
2026-05-08 12:39 49.45361 65.32639 33889 ft 398 kts 244°
2026-05-08 12:39 49.43086 65.24876 33892 ft 398 kts 244°
2026-05-08 12:40 49.40806 65.17121 33886 ft 398 kts 244°
2026-05-08 12:40 49.38519 65.09369 33893 ft 399 kts 244°
2026-05-08 12:41 49.36211 65.01568 33894 ft 399 kts 244°
2026-05-08 12:41 49.33907 64.93824 33892 ft 399 kts 243°
2026-05-08 12:42 49.31487 64.86170 33886 ft 399 kts 242°
2026-05-08 12:42 49.29030 64.78598 33894 ft 399 kts 242°
2026-05-08 12:43 49.26567 64.70977 33892 ft 399 kts 242°
2026-05-08 12:43 49.24110 64.63347 33895 ft 399 kts 242°
2026-05-08 12:44 49.21652 64.55720 33897 ft 399 kts 242°
2026-05-08 12:44 49.19173 64.48050 33894 ft 399 kts 242°
2026-05-08 12:45 49.16704 64.40438 33905 ft 400 kts 242°
2026-05-08 12:45 49.14229 64.32830 33897 ft 400 kts 242°
2026-05-08 12:46 49.11746 64.25223 33890 ft 400 kts 242°
2026-05-08 12:46 49.09253 64.17606 33889 ft 403 kts 242°
2026-05-08 12:47 49.07150 64.11204 33882 ft 408 kts 242°
2026-05-08 12:47 49.04588 64.03419 33888 ft 414 kts 242°
2026-05-08 12:48 49.01988 63.95545 33888 ft 416 kts 242°
2026-05-08 12:48 48.99372 63.87645 33889 ft 414 kts 242°
2026-05-08 12:49 48.96772 63.79818 33887 ft 414 kts 242°
2026-05-08 12:49 48.94165 63.71995 33887 ft 414 kts 242°
2026-05-08 12:50 48.91555 63.64188 33896 ft 414 kts 242°
2026-05-08 12:50 48.88938 63.56382 33891 ft 414 kts 242°
2026-05-08 12:51 48.85245 63.44503 33888 ft 415 kts 245°
2026-05-08 12:52 48.82970 63.36450 33886 ft 415 kts 245°
2026-05-08 12:52 48.79494 63.24428 33897 ft 415 kts 244°
2026-05-08 12:53 48.77139 63.16443 33887 ft 415 kts 244°
2026-05-08 12:53 48.74774 63.08465 33878 ft 415 kts 244°
2026-05-08 12:54 48.72405 63.00497 33893 ft 415 kts 244°
2026-05-08 12:54 48.70031 62.92533 33877 ft 415 kts 244°
2026-05-08 12:55 48.67649 62.84566 33881 ft 416 kts 244°
2026-05-08 12:55 48.65252 62.76576 33878 ft 417 kts 244°
2026-05-08 12:56 48.62848 62.68585 33878 ft 417 kts 244°
2026-05-08 12:56 48.60348 62.60679 33875 ft 417 kts 242°
2026-05-08 12:57 48.57717 62.52859 33875 ft 417 kts 242°
2026-05-08 12:57 48.55089 62.45056 33875 ft 417 kts 242°
2026-05-08 12:58 48.52481 62.37251 33873 ft 417 kts 242°
2026-05-08 12:58 48.49875 62.29440 33869 ft 417 kts 242°
2026-05-08 12:59 48.47265 62.21638 33868 ft 417 kts 242°
2026-05-08 12:59 48.44632 62.13791 33867 ft 417 kts 242°
2026-05-08 13:00 48.42007 62.05996 33868 ft 417 kts 242°
2026-05-08 13:00 48.39377 61.98211 33867 ft 417 kts 242°
2026-05-08 13:01 48.36742 61.90432 33870 ft 417 kts 242°
2026-05-08 13:01 48.34103 61.82666 33882 ft 417 kts 242°
2026-05-08 13:02 48.31454 61.74894 33867 ft 418 kts 242°
2026-05-08 13:02 48.28798 61.67127 33868 ft 418 kts 242°
2026-05-08 13:03 48.26140 61.59374 33865 ft 418 kts 242°
2026-05-08 13:03 48.23473 61.51620 33865 ft 418 kts 242°
2026-05-08 13:04 48.20805 61.43885 33867 ft 417 kts 242°
2026-05-08 13:04 48.18134 61.36164 33865 ft 417 kts 242°
2026-05-08 13:05 48.15460 61.28460 33866 ft 417 kts 242°
2026-05-08 13:05 48.12780 61.20758 33868 ft 417 kts 242°
2026-05-08 13:06 48.10096 61.13072 33869 ft 416 kts 242°
2026-05-08 13:06 48.07406 61.05389 33867 ft 418 kts 241°
2026-05-08 13:07 48.04704 60.97694 33866 ft 418 kts 241°
2026-05-08 13:07 48.01996 60.90006 33869 ft 418 kts 241°
2026-05-08 13:08 47.99284 60.82327 33870 ft 418 kts 241°
2026-05-08 13:08 47.96566 60.74655 33875 ft 419 kts 241°
2026-05-08 13:09 47.93829 60.66951 33844 ft 421 kts 241°
2026-05-08 13:09 47.91087 60.59263 33877 ft 418 kts 241°
2026-05-08 13:10 47.88357 60.51621 33878 ft 417 kts 241°
2026-05-08 13:10 47.85624 60.43992 33879 ft 417 kts 241°
2026-05-08 13:11 47.82880 60.36361 33882 ft 418 kts 241°
2026-05-08 13:11 47.80128 60.28726 33885 ft 419 kts 241°
2026-05-08 13:12 47.77368 60.21093 33886 ft 419 kts 241°
2026-05-08 13:12 47.74603 60.13468 33884 ft 419 kts 240°
2026-05-08 13:13 47.71835 60.05856 33900 ft 419 kts 241°
2026-05-08 13:13 47.69051 59.98230 33888 ft 420 kts 240°
2026-05-08 13:14 47.66257 59.90594 33887 ft 421 kts 240°
2026-05-08 13:14 47.63462 59.82978 33888 ft 421 kts 240°
2026-05-08 13:15 47.60659 59.75364 33888 ft 420 kts 240°
2026-05-08 13:15 47.57855 59.67766 33892 ft 420 kts 240°
2026-05-08 13:16 47.55045 59.60174 33894 ft 420 kts 240°
2026-05-08 13:16 47.52212 59.52545 33892 ft 420 kts 240°
2026-05-08 13:17 47.49871 59.46253 33892 ft 420 kts 240°
2026-05-08 13:17 47.47047 59.38685 33897 ft 420 kts 240°
2026-05-08 13:18 47.44211 59.31109 33892 ft 421 kts 240°
2026-05-08 13:18 47.41366 59.23527 33892 ft 422 kts 240°
2026-05-08 13:19 47.38519 59.15961 33892 ft 422 kts 240°
2026-05-08 13:19 47.35664 59.08398 33892 ft 422 kts 240°
2026-05-08 13:20 47.32806 59.00848 33889 ft 422 kts 240°
2026-05-08 13:20 47.29943 58.93303 33892 ft 422 kts 240°
2026-05-08 13:21 47.27076 58.85770 33895 ft 422 kts 240°
2026-05-08 13:21 47.24202 58.78242 33894 ft 421 kts 240°
2026-05-08 13:22 47.21325 58.70726 33890 ft 421 kts 240°
2026-05-08 13:22 47.18446 58.63225 33892 ft 421 kts 240°
2026-05-08 13:23 47.15561 58.55728 33893 ft 421 kts 240°
2026-05-08 13:23 47.12673 58.48246 33889 ft 421 kts 240°
2026-05-08 13:24 47.09780 58.40771 33903 ft 421 kts 240°
2026-05-08 13:24 47.06879 58.33298 33892 ft 421 kts 240°
2026-05-08 13:25 47.03967 58.25815 33888 ft 422 kts 240°
2026-05-08 13:25 47.01055 58.18353 33892 ft 422 kts 240°
2026-05-08 13:26 46.98137 58.10896 33895 ft 422 kts 240°
2026-05-08 13:26 46.95213 58.03445 33894 ft 422 kts 240°
2026-05-08 13:27 46.92280 57.95991 33895 ft 423 kts 240°
2026-05-08 13:27 46.89340 57.88542 33897 ft 423 kts 240°
2026-05-08 13:28 46.86395 57.81097 33898 ft 423 kts 240°
2026-05-08 13:28 46.83446 57.73664 33894 ft 423 kts 240°
2026-05-08 13:29 46.80486 57.66225 33898 ft 424 kts 240°
2026-05-08 13:29 46.77501 57.58741 33894 ft 424 kts 240°
2026-05-08 13:30 46.74529 57.51311 33894 ft 424 kts 239°
2026-05-08 13:30 46.71554 57.43894 33899 ft 424 kts 239°
2026-05-08 13:31 46.68574 57.36485 33900 ft 424 kts 239°
2026-05-08 13:31 46.65587 57.29076 33897 ft 424 kts 239°
2026-05-08 13:32 46.62594 57.21675 33903 ft 424 kts 239°
2026-05-08 13:32 46.59597 57.14283 33900 ft 424 kts 239°
2026-05-08 13:33 46.56592 57.06893 33897 ft 425 kts 239°
2026-05-08 13:33 46.53577 56.99496 33906 ft 425 kts 239°
2026-05-08 13:34 46.50557 56.92108 33911 ft 425 kts 239°
2026-05-08 13:34 46.47032 56.85229 33908 ft 426 kts 226°
2026-05-08 13:35 46.42655 56.79395 33908 ft 429 kts 223°
2026-05-08 13:35 46.38081 56.73739 33908 ft 429 kts 222°
2026-05-08 13:36 46.33521 56.68158 33914 ft 429 kts 222°
2026-05-08 13:36 46.28968 56.62560 33911 ft 429 kts 223°
2026-05-08 13:37 46.24422 56.56957 33915 ft 430 kts 223°
2026-05-08 13:37 46.19859 56.51339 33904 ft 431 kts 223°
2026-05-08 13:38 46.15303 56.45745 33916 ft 428 kts 223°
2026-05-08 13:38 46.10796 56.40225 33914 ft 427 kts 223°
2026-05-08 13:39 46.06268 56.34690 33910 ft 427 kts 222°
2026-05-08 13:39 46.01738 56.29166 33916 ft 426 kts 222°
2026-05-08 13:40 45.97214 56.23661 33916 ft 426 kts 222°
2026-05-08 13:40 45.92684 56.18162 33919 ft 426 kts 222°
2026-05-08 13:41 45.88125 56.12638 33920 ft 426 kts 222°
2026-05-08 13:41 45.83589 56.07155 33925 ft 426 kts 222°
2026-05-08 13:42 45.79053 56.01685 33922 ft 426 kts 222°
2026-05-08 13:42 45.74527 55.96239 33927 ft 423 kts 222°
2026-05-08 13:43 45.70020 55.90827 33930 ft 422 kts 222°
2026-05-08 13:43 45.65511 55.85424 33930 ft 423 kts 222°
2026-05-08 13:44 45.60996 55.80027 33933 ft 423 kts 222°
2026-05-08 13:44 45.56484 55.74644 33933 ft 423 kts 222°
2026-05-08 13:45 45.51963 55.69263 33938 ft 423 kts 221°
2026-05-08 13:45 45.47442 55.63892 33947 ft 423 kts 221°
2026-05-08 13:46 45.42915 55.58528 33945 ft 423 kts 221°
2026-05-08 13:46 45.38386 55.53172 33933 ft 423 kts 221°
2026-05-08 13:47 45.33884 55.47858 33954 ft 419 kts 221°
2026-05-08 13:47 45.30156 55.43468 33950 ft 418 kts 221°
2026-05-08 13:48 45.25672 55.38196 33948 ft 418 kts 221°
2026-05-08 13:48 45.21189 55.32937 33953 ft 418 kts 221°
2026-05-08 13:49 45.16699 55.27681 33958 ft 418 kts 221°
2026-05-08 13:49 45.12203 55.22429 33956 ft 419 kts 221°
2026-05-08 13:50 45.07701 55.17177 33960 ft 419 kts 221°
2026-05-08 13:50 45.03361 55.11666 33958 ft 419 kts 224°
2026-05-08 13:51 44.99118 55.06017 33941 ft 419 kts 224°
2026-05-08 13:51 44.94867 55.00423 33949 ft 416 kts 223°
2026-05-08 13:52 44.90616 54.94910 33966 ft 415 kts 223°
2026-05-08 13:52 44.86353 54.89416 33968 ft 415 kts 223°
2026-05-08 13:53 44.82089 54.83934 33961 ft 415 kts 223°
2026-05-08 13:53 44.77792 54.78417 33958 ft 416 kts 223°
2026-05-08 13:54 44.73507 54.72926 33965 ft 417 kts 223°
2026-05-08 13:54 44.69219 54.67442 33987 ft 417 kts 223°
2026-05-08 13:55 44.65257 54.61512 33987 ft 416 kts 232°
2026-05-08 13:56 44.60184 54.51575 33972 ft 419 kts 234°
2026-05-08 13:56 44.56863 54.44845 33971 ft 419 kts 234°
2026-05-08 13:57 44.53538 54.38150 33973 ft 418 kts 234°
2026-05-08 13:57 44.50200 54.31473 33982 ft 418 kts 234°
2026-05-08 13:58 44.46850 54.24801 33989 ft 418 kts 233°
2026-05-08 13:58 44.43516 54.18177 33989 ft 415 kts 233°
2026-05-08 13:59 44.40163 54.11528 33992 ft 421 kts 233°
2026-05-08 13:59 44.36755 54.04787 34009 ft 428 kts 233°
2026-05-08 14:00 44.33292 53.97949 34008 ft 434 kts 233°
2026-05-08 14:00 44.29788 53.91048 33992 ft 434 kts 233°
2026-05-08 14:01 44.26295 53.84183 34008 ft 433 kts 233°
2026-05-08 14:01 44.22800 53.77333 34011 ft 433 kts 233°
2026-05-08 14:02 44.19279 53.70448 33997 ft 433 kts 233°
2026-05-08 14:02 44.15777 53.63616 34013 ft 433 kts 233°
2026-05-08 14:03 44.12270 53.56792 34022 ft 433 kts 233°
2026-05-08 14:03 44.08758 53.49972 34006 ft 434 kts 233°
2026-05-08 14:04 44.05233 53.43144 34007 ft 435 kts 233°
2026-05-08 14:04 44.01705 53.36323 34028 ft 435 kts 233°
2026-05-08 14:05 43.98169 53.29508 34012 ft 435 kts 233°
2026-05-08 14:05 43.94631 53.22703 34017 ft 435 kts 233°
2026-05-08 14:06 43.91080 53.15888 34019 ft 436 kts 233°
2026-05-08 14:06 43.87518 53.09067 34023 ft 436 kts 233°
2026-05-08 14:07 43.83951 53.02256 34022 ft 436 kts 233°
2026-05-08 14:07 43.80375 52.95445 34027 ft 438 kts 233°
2026-05-08 14:08 43.76780 52.88616 34033 ft 439 kts 233°
2026-05-08 14:08 43.73158 52.81748 34033 ft 439 kts 233°
2026-05-08 14:09 43.69549 52.74923 34042 ft 439 kts 233°
2026-05-08 14:09 43.65933 52.68099 34032 ft 440 kts 232°
2026-05-08 14:10 43.62327 52.61314 34046 ft 437 kts 232°
2026-05-08 14:10 43.58725 52.54583 34051 ft 435 kts 232°
2026-05-08 14:11 43.55127 52.47877 34055 ft 435 kts 232°
2026-05-08 14:11 43.51519 52.41161 34052 ft 437 kts 232°
2026-05-08 14:12 43.47901 52.34437 34062 ft 437 kts 232°
2026-05-08 14:12 43.44279 52.27721 34065 ft 437 kts 232°
2026-05-08 14:13 43.40650 52.21008 34067 ft 438 kts 232°
2026-05-08 14:13 43.37007 52.14284 34068 ft 439 kts 232°
2026-05-08 14:14 43.33353 52.07556 34073 ft 439 kts 232°
2026-05-08 14:14 43.29699 52.00843 34072 ft 439 kts 232°
2026-05-08 14:15 43.26035 51.94125 34073 ft 441 kts 232°
2026-05-08 14:15 43.22353 51.87392 34075 ft 441 kts 232°
2026-05-08 14:16 43.18667 51.80667 34080 ft 441 kts 232°
2026-05-08 14:16 43.14976 51.73947 34082 ft 442 kts 232°
2026-05-08 14:17 43.11263 51.67204 34080 ft 445 kts 232°
2026-05-08 14:17 43.07533 51.60442 34080 ft 445 kts 232°
2026-05-08 14:18 43.03796 51.53687 34081 ft 445 kts 232°
2026-05-08 14:18 43.00738 51.48168 34085 ft 446 kts 232°
2026-05-08 14:19 42.96364 51.40295 34080 ft 448 kts 232°
2026-05-08 14:19 42.93196 51.34604 34082 ft 449 kts 232°
2026-05-08 14:20 42.89418 51.27831 34085 ft 449 kts 232°
2026-05-08 14:20 42.85631 51.21058 34076 ft 445 kts 231°
2026-05-08 14:21 42.81890 51.14382 34085 ft 442 kts 231°
2026-05-08 14:21 42.78166 51.07751 34089 ft 440 kts 231°
2026-05-08 14:22 42.74448 51.01148 34097 ft 440 kts 231°
2026-05-08 14:22 42.70696 50.94501 34087 ft 444 kts 231°
2026-05-08 14:23 42.66926 50.87833 34093 ft 444 kts 231°
2026-05-08 14:23 42.63157 50.81181 34094 ft 444 kts 231°
2026-05-08 14:24 42.59369 50.74513 34097 ft 447 kts 231°
2026-05-08 14:24 42.55557 50.67817 34097 ft 449 kts 231°
2026-05-08 14:25 42.51738 50.61123 34099 ft 448 kts 231°
2026-05-08 14:25 42.47912 50.54434 34102 ft 449 kts 231°
2026-05-08 14:26 42.44063 50.47718 34170 ft 453 kts 231°
2026-05-08 14:26 42.42145 50.44334 34310 ft 453 kts 232°
2026-05-08 14:26 42.40291 50.40884 34460 ft 452 kts 234°
2026-05-08 14:26 42.38475 50.37404 34608 ft 452 kts 234°
2026-05-08 14:27 42.36673 50.33924 34739 ft 452 kts 234°
2026-05-08 14:27 42.33032 50.26945 34778 ft 457 kts 234°
2026-05-08 14:27 42.31188 50.23449 34911 ft 456 kts 234°
2026-05-08 14:28 42.29341 50.19963 35084 ft 455 kts 234°
2026-05-08 14:28 42.27497 50.16496 35234 ft 454 kts 234°
2026-05-08 14:28 42.25653 50.13036 35362 ft 454 kts 234°
2026-05-08 14:28 42.23811 50.09584 35488 ft 453 kts 234°
2026-05-08 14:29 42.21963 50.06126 35517 ft 455 kts 234°
2026-05-08 14:29 42.18242 49.99173 35681 ft 456 kts 234°
2026-05-08 14:29 42.16386 49.95708 35829 ft 455 kts 234°
2026-05-08 14:30 42.14534 49.92255 35960 ft 455 kts 234°
2026-05-08 14:30 42.12677 49.88797 36079 ft 454 kts 234°
2026-05-08 14:30 42.10820 49.85343 36106 ft 456 kts 233°
2026-05-08 14:31 42.07081 49.78401 36114 ft 458 kts 234°
2026-05-08 14:31 42.03360 49.71507 36106 ft 457 kts 233°
2026-05-08 14:32 41.97748 49.61139 36108 ft 457 kts 233°
2026-05-08 14:32 41.94001 49.54238 36115 ft 456 kts 233°
2026-05-08 14:33 41.90261 49.47364 36120 ft 454 kts 233°
2026-05-08 14:33 41.86534 49.40529 36117 ft 454 kts 233°
2026-05-08 14:34 41.82799 49.33695 36128 ft 455 kts 233°
2026-05-08 14:34 41.79089 49.26815 36112 ft 456 kts 235°
2026-05-08 14:35 41.75585 49.19725 36116 ft 456 kts 236°
2026-05-08 14:35 41.72120 49.12621 36118 ft 456 kts 236°
2026-05-08 14:36 41.68615 49.05540 36115 ft 456 kts 236°
2026-05-08 14:36 41.65083 48.98482 36114 ft 456 kts 236°
2026-05-08 14:37 41.61545 48.91442 36133 ft 456 kts 236°
2026-05-08 14:37 41.58004 48.84411 36120 ft 456 kts 236°
2026-05-08 14:38 41.54461 48.77390 36122 ft 456 kts 236°
2026-05-08 14:38 41.50878 48.70399 36128 ft 456 kts 234°
2026-05-08 14:39 41.47079 48.63616 36135 ft 456 kts 232°
2026-05-08 14:39 41.43232 48.56882 36143 ft 456 kts 232°
2026-05-08 14:40 41.39446 48.50105 36143 ft 456 kts 233°
2026-05-08 14:40 41.35727 48.43254 36161 ft 456 kts 234°
2026-05-08 14:41 41.32012 48.36408 36162 ft 456 kts 233°
2026-05-08 14:41 41.28275 48.29563 36168 ft 457 kts 233°
2026-05-08 14:42 41.24530 48.22732 36172 ft 457 kts 233°
2026-05-08 14:42 41.20778 48.15905 36173 ft 457 kts 233°
2026-05-08 14:43 41.17018 48.09080 36182 ft 457 kts 233°
2026-05-08 14:43 41.13272 48.02244 36176 ft 458 kts 236°
2026-05-08 14:44 41.10453 47.94691 36186 ft 460 kts 251°
2026-05-08 14:44 41.08798 47.86471 36181 ft 462 kts 255°
2026-05-08 14:45 41.07354 47.78177 36169 ft 462 kts 255°
2026-05-08 14:45 41.05918 47.69869 36170 ft 463 kts 255°
2026-05-08 14:46 41.04449 47.61568 36171 ft 462 kts 255°
2026-05-08 14:46 41.02962 47.53280 36177 ft 462 kts 255°
2026-05-08 14:47 41.01464 47.44992 36180 ft 462 kts 255°
2026-05-08 14:47 40.99962 47.36708 36183 ft 463 kts 255°
2026-05-08 14:48 40.98448 47.28390 36181 ft 466 kts 255°
2026-05-08 14:48 40.96921 47.20039 36184 ft 467 kts 255°
2026-05-08 14:49 40.95386 47.11681 36182 ft 467 kts 255°
2026-05-08 14:49 40.94098 47.04691 36181 ft 467 kts 255°
2026-05-08 14:50 40.92553 46.96345 36173 ft 467 kts 255°
2026-05-08 14:50 40.91001 46.88001 36180 ft 468 kts 255°
2026-05-08 14:51 40.89708 46.79565 36168 ft 469 kts 260°
2026-05-08 14:51 40.88843 46.71003 36169 ft 470 kts 261°
2026-05-08 14:52 40.87644 46.58132 36168 ft 472 kts 262°
2026-05-08 14:53 40.86829 46.49504 36162 ft 473 kts 261°
2026-05-08 14:53 40.85999 46.40874 36165 ft 473 kts 261°
2026-05-08 14:54 40.85161 46.32243 36160 ft 473 kts 261°
2026-05-08 14:54 40.84317 46.23623 36166 ft 473 kts 261°
2026-05-08 14:55 40.83466 46.14999 36163 ft 474 kts 261°
2026-05-08 14:55 40.82607 46.06363 36162 ft 474 kts 261°
2026-05-08 14:56 40.81742 45.97723 36162 ft 475 kts 261°
2026-05-08 14:56 40.80868 45.89061 36173 ft 476 kts 261°
2026-05-08 14:57 40.79984 45.80385 36175 ft 476 kts 261°
2026-05-08 14:57 40.79097 45.71734 36182 ft 476 kts 261°
2026-05-08 14:58 40.78202 45.63057 36182 ft 476 kts 261°
2026-05-08 14:58 40.77302 45.54404 36193 ft 476 kts 261°
2026-05-08 14:59 40.77099 45.45676 36207 ft 477 kts 271°
2026-05-08 14:59 40.77649 45.32518 36199 ft 479 kts 272°
2026-05-08 15:00 40.78072 45.23742 36213 ft 479 kts 272°
2026-05-08 15:00 40.78475 45.14956 36210 ft 479 kts 272°
2026-05-08 15:01 40.78858 45.06239 36213 ft 479 kts 272°
2026-05-08 15:01 40.79238 44.97396 36222 ft 480 kts 272°
2026-05-08 15:02 40.79607 44.88610 36220 ft 479 kts 272°
2026-05-08 15:02 40.79970 44.79846 36231 ft 477 kts 272°
2026-05-08 15:03 40.80326 44.71092 36229 ft 478 kts 272°
2026-05-08 15:03 40.80675 44.62332 36240 ft 477 kts 272°
2026-05-08 15:04 40.81020 44.53563 36241 ft 480 kts 272°
2026-05-08 15:04 40.81358 44.44745 36240 ft 482 kts 272°
2026-05-08 15:05 40.81689 44.35938 36246 ft 481 kts 272°
2026-05-08 15:05 40.82014 44.27108 36249 ft 480 kts 272°
2026-05-08 15:06 40.82332 44.18308 36242 ft 480 kts 272°
2026-05-08 15:06 40.82643 44.09489 36237 ft 481 kts 272°
2026-05-08 15:07 40.82949 44.00654 36225 ft 481 kts 272°
2026-05-08 15:07 40.83247 43.91829 36217 ft 481 kts 272°
2026-05-08 15:08 40.83490 43.84489 36219 ft 481 kts 272°
2026-05-08 15:08 40.83824 43.74231 36216 ft 481 kts 272°
2026-05-08 15:09 40.84118 43.65414 36213 ft 480 kts 273°
2026-05-08 15:09 40.84602 43.56566 36213 ft 479 kts 275°
2026-05-08 15:10 40.85139 43.47790 36216 ft 480 kts 275°
2026-05-08 15:10 40.85645 43.38994 36214 ft 479 kts 274°
2026-05-08 15:11 40.86122 43.30249 36220 ft 480 kts 274°
2026-05-08 15:11 40.86590 43.21405 36224 ft 479 kts 274°
2026-05-08 15:12 40.87046 43.12674 36229 ft 480 kts 274°
2026-05-08 15:12 40.87500 43.03865 36230 ft 479 kts 274°
2026-05-08 15:13 40.87948 42.95073 36229 ft 480 kts 274°
2026-05-08 15:13 40.88388 42.86281 36224 ft 479 kts 275°
2026-05-08 15:14 40.88824 42.77446 36228 ft 479 kts 275°
2026-05-08 15:14 40.89251 42.68666 36224 ft 478 kts 274°
2026-05-08 15:15 40.89671 42.59881 36226 ft 479 kts 274°
2026-05-08 15:15 40.90084 42.51090 36220 ft 479 kts 274°
2026-05-08 15:16 40.90491 42.42302 36209 ft 478 kts 275°
2026-05-08 15:16 40.90890 42.33519 36211 ft 479 kts 275°
2026-05-08 15:17 40.91283 42.24736 36200 ft 478 kts 275°
2026-05-08 15:17 40.91669 42.15960 36199 ft 478 kts 275°
2026-05-08 15:18 40.92049 42.07180 36197 ft 478 kts 275°
2026-05-08 15:18 40.92422 41.98399 36195 ft 478 kts 275°
2026-05-08 15:19 40.92786 41.89664 36197 ft 478 kts 275°
2026-05-08 15:19 40.93088 41.82315 36194 ft 478 kts 275°
2026-05-08 15:20 40.93440 41.73537 36198 ft 478 kts 275°
2026-05-08 15:20 40.93787 41.64782 36200 ft 476 kts 275°
2026-05-08 15:21 40.94126 41.56043 36206 ft 475 kts 275°
2026-05-08 15:21 40.94458 41.47303 36206 ft 475 kts 275°
2026-05-08 15:22 40.94782 41.38620 36213 ft 475 kts 274°
2026-05-08 15:22 40.95103 41.29835 36213 ft 475 kts 274°
2026-05-08 15:23 40.95415 41.21097 36214 ft 475 kts 274°
2026-05-08 15:23 40.95719 41.12423 36208 ft 474 kts 274°
2026-05-08 15:24 40.96019 41.03662 36199 ft 473 kts 274°
2026-05-08 15:24 40.96310 40.94968 36198 ft 473 kts 274°
2026-05-08 15:25 40.96599 40.86262 36195 ft 473 kts 274°
2026-05-08 15:25 40.96877 40.77560 36194 ft 473 kts 274°
2026-05-08 15:26 40.97145 40.68853 36186 ft 473 kts 274°
2026-05-08 15:26 40.97407 40.60151 36188 ft 473 kts 274°
2026-05-08 15:27 40.97666 40.51439 36183 ft 473 kts 274°
2026-05-08 15:27 40.97917 40.42777 36167 ft 473 kts 274°
2026-05-08 15:28 40.98162 40.34059 36168 ft 473 kts 274°
2026-05-08 15:28 40.98401 40.25350 36167 ft 474 kts 274°
2026-05-08 15:29 40.98636 40.16637 36168 ft 474 kts 274°
2026-05-08 15:29 40.98859 40.07911 36164 ft 473 kts 274°
2026-05-08 15:30 40.99071 39.99216 36181 ft 473 kts 274°
2026-05-08 15:30 40.99279 39.90518 36186 ft 473 kts 274°
2026-05-08 15:31 40.99485 39.81807 36183 ft 473 kts 275°
2026-05-08 15:31 41.00147 39.73173 36182 ft 471 kts 279°
2026-05-08 15:32 41.00963 39.64510 36181 ft 471 kts 279°
2026-05-08 15:32 41.01795 39.55907 36185 ft 471 kts 279°
2026-05-08 15:33 41.02611 39.47362 36181 ft 469 kts 279°
2026-05-08 15:33 41.03417 39.38797 36182 ft 468 kts 279°
2026-05-08 15:34 41.04213 39.30231 36170 ft 468 kts 279°
2026-05-08 15:34 41.05001 39.21670 36170 ft 468 kts 279°
2026-05-08 15:35 41.05785 39.13091 36162 ft 468 kts 279°
2026-05-08 15:35 41.06578 39.04533 36156 ft 468 kts 279°
2026-05-08 15:36 41.07367 38.95971 36157 ft 468 kts 279°
2026-05-08 15:36 41.08148 38.87414 36149 ft 468 kts 279°
2026-05-08 15:37 41.08922 38.78864 36151 ft 465 kts 279°
2026-05-08 15:37 41.09684 38.70362 36160 ft 463 kts 279°
2026-05-08 15:38 41.10430 38.61874 36161 ft 463 kts 279°
2026-05-08 15:38 41.11157 38.53375 36165 ft 463 kts 279°
2026-05-08 15:39 41.11861 38.44870 36167 ft 463 kts 279°
2026-05-08 15:39 41.12559 38.36385 36176 ft 463 kts 279°
2026-05-08 15:40 41.13256 38.27888 36181 ft 463 kts 279°
2026-05-08 15:40 41.13957 38.19395 36181 ft 463 kts 279°
2026-05-08 15:41 41.14648 38.10907 36169 ft 462 kts 279°
2026-05-08 15:41 41.15330 38.02441 36178 ft 461 kts 279°
2026-05-08 15:42 41.16007 37.93973 36164 ft 461 kts 279°
2026-05-08 15:42 41.16684 37.85501 36162 ft 461 kts 279°
2026-05-08 15:43 41.17402 37.77035 36158 ft 461 kts 279°
2026-05-08 15:43 41.18127 37.68582 36143 ft 461 kts 279°
2026-05-08 15:44 41.18839 37.60117 36148 ft 461 kts 279°
2026-05-08 15:44 41.19338 37.51620 36147 ft 461 kts 278°
2026-05-08 15:45 41.19899 37.43199 36147 ft 460 kts 279°
2026-05-08 15:45 41.20532 37.34747 36143 ft 459 kts 279°
2026-05-08 15:46 41.21167 37.26286 36148 ft 459 kts 279°
2026-05-08 15:46 41.21796 37.17838 36148 ft 459 kts 279°
2026-05-08 15:47 41.22455 37.09402 36147 ft 459 kts 279°
2026-05-08 15:47 41.23115 37.00962 36153 ft 459 kts 279°
2026-05-08 15:48 41.24087 36.88244 36155 ft 459 kts 279°
2026-05-08 15:49 41.24721 36.79803 36156 ft 459 kts 279°
2026-05-08 15:49 41.25349 36.71354 36157 ft 459 kts 279°
2026-05-08 15:50 41.25970 36.62913 36157 ft 458 kts 279°
2026-05-08 15:50 41.26831 36.54550 36157 ft 454 kts 287°
2026-05-08 15:51 41.28655 36.46547 36154 ft 452 kts 291°
2026-05-08 15:51 41.30324 36.39959 36154 ft 452 kts 291°
2026-05-08 15:52 41.32364 36.32050 36154 ft 452 kts 291°
2026-05-08 15:52 41.34388 36.24132 36149 ft 452 kts 291°
2026-05-08 15:53 41.36393 36.16209 36151 ft 452 kts 291°
2026-05-08 15:53 41.38387 36.08285 36146 ft 452 kts 291°
2026-05-08 15:54 41.40379 36.00344 36145 ft 452 kts 291°
2026-05-08 15:54 41.42363 35.92406 36137 ft 451 kts 291°
2026-05-08 15:55 41.44342 35.84465 36139 ft 451 kts 291°
2026-05-08 15:55 41.47300 35.72550 36131 ft 451 kts 291°
2026-05-08 15:56 41.49266 35.64593 36134 ft 451 kts 291°
2026-05-08 15:56 41.51227 35.56633 36135 ft 451 kts 291°
2026-05-08 15:57 41.53193 35.48620 36138 ft 452 kts 291°
2026-05-08 15:57 41.55142 35.40649 36137 ft 452 kts 291°
2026-05-08 15:58 41.57087 35.32672 36134 ft 452 kts 290°
2026-05-08 15:58 41.59026 35.24689 36133 ft 452 kts 290°
2026-05-08 15:59 41.60958 35.16711 36125 ft 451 kts 290°
2026-05-08 15:59 41.62881 35.08734 36129 ft 451 kts 290°
2026-05-08 16:00 41.64800 35.00756 36122 ft 451 kts 290°
2026-05-08 16:00 41.66725 34.92722 36121 ft 450 kts 290°
2026-05-08 16:01 41.68631 34.84747 36132 ft 451 kts 290°
2026-05-08 16:01 41.70532 34.76758 36119 ft 451 kts 290°
2026-05-08 16:02 41.72426 34.68769 36136 ft 450 kts 290°
2026-05-08 16:02 41.74313 34.60787 36134 ft 449 kts 290°
2026-05-08 16:03 41.76193 34.52815 36119 ft 449 kts 289°
2026-05-08 16:03 41.78063 34.44812 36126 ft 450 kts 289°
2026-05-08 16:04 41.79926 34.36835 36132 ft 447 kts 289°
2026-05-08 16:04 41.81783 34.28871 36129 ft 447 kts 289°
2026-05-08 16:05 41.83635 34.20906 36134 ft 448 kts 289°
2026-05-08 16:05 41.85480 34.12924 36128 ft 447 kts 289°
2026-05-08 16:06 41.87313 34.04961 36136 ft 445 kts 289°
2026-05-08 16:06 41.89080 33.97263 36133 ft 445 kts 289°
2026-05-08 16:07 41.90898 33.89318 36128 ft 446 kts 289°
2026-05-08 16:07 41.92716 33.81347 36127 ft 445 kts 289°
2026-05-08 16:08 41.94516 33.73422 36131 ft 443 kts 289°
2026-05-08 16:08 41.96247 33.65494 36128 ft 442 kts 287°
2026-05-08 16:09 41.97523 33.58782 36131 ft 443 kts 286°
2026-05-08 16:09 41.99257 33.49433 36114 ft 443 kts 286°
2026-05-08 16:10 42.00767 33.41437 36117 ft 439 kts 287°
2026-05-08 16:10 42.02279 33.33499 36119 ft 436 kts 287°
2026-05-08 16:11 42.03782 33.25600 36116 ft 436 kts 287°
2026-05-08 16:11 42.05279 33.17693 36105 ft 436 kts 287°
2026-05-08 16:12 42.06768 33.09792 36117 ft 435 kts 287°
2026-05-08 16:12 42.08295 33.01920 36106 ft 435 kts 288°
2026-05-08 16:13 42.09919 32.94085 36114 ft 434 kts 288°
2026-05-08 16:13 42.11554 32.86195 36110 ft 434 kts 288°
2026-05-08 16:14 42.13159 32.78341 36110 ft 435 kts 287°
2026-05-08 16:14 42.14752 32.70468 36108 ft 435 kts 287°
2026-05-08 16:15 42.16338 32.62594 36106 ft 435 kts 287°
2026-05-08 16:15 42.17919 32.54713 36110 ft 435 kts 287°
2026-05-08 16:16 42.19492 32.46825 36110 ft 435 kts 287°
2026-05-08 16:16 42.21060 32.38937 36099 ft 435 kts 287°
2026-05-08 16:17 42.22359 32.32379 36104 ft 435 kts 287°
2026-05-08 16:17 42.24181 32.23148 36105 ft 435 kts 287°
2026-05-08 16:18 42.25733 32.15245 36091 ft 436 kts 286°
2026-05-08 16:18 42.27282 32.07323 36102 ft 436 kts 286°
2026-05-08 16:19 42.28829 31.99397 36098 ft 436 kts 286°
2026-05-08 16:19 42.30371 31.91466 36101 ft 436 kts 286°
2026-05-08 16:20 42.31911 31.83527 36095 ft 437 kts 286°
2026-05-08 16:20 42.33450 31.75555 36094 ft 439 kts 286°
2026-05-08 16:21 42.34986 31.67565 36089 ft 439 kts 285°
2026-05-08 16:21 42.36519 31.59560 36091 ft 440 kts 285°
2026-05-08 16:22 42.37798 31.52857 36091 ft 440 kts 285°
2026-05-08 16:22 42.39322 31.44836 36087 ft 441 kts 285°
2026-05-08 16:23 42.40844 31.36796 36085 ft 441 kts 285°
2026-05-08 16:23 42.42360 31.28753 36088 ft 441 kts 285°
2026-05-08 16:24 42.43870 31.20707 36084 ft 441 kts 285°
2026-05-08 16:24 42.45378 31.12640 36080 ft 442 kts 284°
2026-05-08 16:25 42.46884 31.04551 36078 ft 443 kts 284°
2026-05-08 16:25 42.48380 30.96455 36080 ft 443 kts 284°
2026-05-08 16:26 42.49871 30.88353 36087 ft 443 kts 284°
2026-05-08 16:26 42.51358 30.80241 36076 ft 444 kts 284°
2026-05-08 16:27 42.52841 30.72120 36076 ft 444 kts 284°
2026-05-08 16:27 42.54319 30.63991 36081 ft 444 kts 284°
2026-05-08 16:28 42.55792 30.55857 36075 ft 444 kts 284°
2026-05-08 16:28 42.57261 30.47707 36075 ft 445 kts 284°
2026-05-08 16:29 42.58726 30.39544 36076 ft 446 kts 283°
2026-05-08 16:29 42.60229 30.31373 36064 ft 446 kts 287°
2026-05-08 16:30 42.62787 30.23722 36075 ft 447 kts 302°
2026-05-08 16:30 42.66430 30.16848 36072 ft 450 kts 305°
2026-05-08 16:31 42.70276 30.10103 36068 ft 452 kts 306°
2026-05-08 16:31 42.74140 30.03360 36069 ft 452 kts 306°
2026-05-08 16:32 42.77980 29.96592 36068 ft 452 kts 306°
2026-05-08 16:32 42.81818 29.89778 36058 ft 455 kts 305°
2026-05-08 16:33 42.85667 29.82922 36063 ft 455 kts 305°
2026-05-08 16:33 42.89535 29.76018 36058 ft 455 kts 305°
2026-05-08 16:34 42.93382 29.69136 36061 ft 457 kts 306°
2026-05-08 16:34 42.97251 29.62197 36052 ft 460 kts 305°
2026-05-08 16:35 43.01119 29.55248 36051 ft 459 kts 305°
2026-05-08 16:35 43.04979 29.48296 36064 ft 458 kts 305°
2026-05-08 16:36 43.08810 29.41381 36063 ft 458 kts 305°
2026-05-08 16:36 43.12665 29.34404 36049 ft 459 kts 305°
2026-05-08 16:37 43.16536 29.27382 36049 ft 459 kts 305°
2026-05-08 16:37 43.20377 29.20398 36055 ft 459 kts 305°
2026-05-08 16:38 43.24204 29.13423 36053 ft 461 kts 305°
2026-05-08 16:38 43.28059 29.06380 36053 ft 461 kts 305°
2026-05-08 16:39 43.31910 28.99328 36051 ft 461 kts 305°
2026-05-08 16:39 43.35759 28.92262 36052 ft 463 kts 305°
2026-05-08 16:40 43.39620 28.85159 36057 ft 463 kts 305°
2026-05-08 16:40 43.43459 28.78078 36054 ft 461 kts 305°
2026-05-08 16:41 43.47296 28.70984 36050 ft 461 kts 304°
2026-05-08 16:42 43.53047 28.60317 36050 ft 463 kts 304°
2026-05-08 16:42 43.56888 28.53173 36055 ft 464 kts 304°
2026-05-08 16:43 43.60725 28.46018 36053 ft 464 kts 304°
2026-05-08 16:43 43.64560 28.38849 36049 ft 465 kts 304°
2026-05-08 16:44 43.68406 28.31642 36047 ft 465 kts 304°
2026-05-08 16:44 43.72246 28.24428 36048 ft 465 kts 304°
2026-05-08 16:45 43.76080 28.17209 36051 ft 466 kts 304°
2026-05-08 16:45 43.79912 28.09974 36054 ft 466 kts 304°
2026-05-08 16:46 43.83738 28.02736 36036 ft 465 kts 304°
2026-05-08 16:46 43.87561 27.95484 36030 ft 465 kts 304°
2026-05-08 16:47 43.91371 27.88237 36034 ft 465 kts 304°
2026-05-08 16:47 43.95182 27.80969 36029 ft 466 kts 304°
2026-05-08 16:48 43.98997 27.73679 36023 ft 466 kts 304°
2026-05-08 16:48 44.02802 27.66388 36024 ft 466 kts 304°
2026-05-08 16:49 44.06604 27.59084 36018 ft 467 kts 304°
2026-05-08 16:49 44.10414 27.51747 36018 ft 468 kts 304°
2026-05-08 16:50 44.14218 27.44403 36017 ft 468 kts 304°
2026-05-08 16:50 44.18018 27.37047 36021 ft 468 kts 303°
2026-05-08 16:51 44.21817 27.29677 36011 ft 469 kts 303°
2026-05-08 16:51 44.25614 27.22291 36010 ft 468 kts 303°
2026-05-08 16:52 44.29402 27.14902 36007 ft 468 kts 303°
2026-05-08 16:52 44.32573 27.08703 36013 ft 468 kts 303°
2026-05-08 16:53 44.38222 26.97626 36007 ft 468 kts 303°
2026-05-08 16:53 44.42026 26.90143 36007 ft 469 kts 303°
2026-05-08 16:54 44.45775 26.82750 36007 ft 468 kts 303°
2026-05-08 16:54 44.49545 26.75297 36007 ft 469 kts 303°
2026-05-08 16:55 44.53307 26.67839 36005 ft 469 kts 303°
2026-05-08 16:55 44.57065 26.60370 36004 ft 469 kts 303°
2026-05-08 16:56 44.60370 26.52524 36009 ft 466 kts 294°
2026-05-08 16:56 44.63177 26.44318 36004 ft 467 kts 293°
2026-05-08 16:57 44.65906 26.36038 36001 ft 467 kts 293°
2026-05-08 16:57 44.68626 26.27751 35998 ft 466 kts 293°
2026-05-08 16:58 44.71335 26.19502 35979 ft 465 kts 292°
2026-05-08 16:58 44.74065 26.11177 35976 ft 466 kts 292°
2026-05-08 16:59 44.76760 26.02940 35978 ft 466 kts 292°
2026-05-08 16:59 44.79464 25.94651 35984 ft 466 kts 292°
2026-05-08 17:00 44.82164 25.86344 35994 ft 466 kts 292°
2026-05-08 17:00 44.84852 25.78048 35997 ft 466 kts 292°
2026-05-08 17:01 44.87540 25.69727 36000 ft 466 kts 292°
2026-05-08 17:01 44.90220 25.61405 35998 ft 466 kts 292°
2026-05-08 17:02 44.92911 25.53020 35999 ft 466 kts 292°
2026-05-08 17:02 44.95577 25.44687 36001 ft 466 kts 292°
2026-05-08 17:03 44.98239 25.36339 36001 ft 466 kts 292°
2026-05-08 17:03 45.00948 25.28022 36009 ft 466 kts 294°
2026-05-08 17:04 45.03861 25.19826 36009 ft 467 kts 295°
2026-05-08 17:04 45.06797 25.11632 36007 ft 467 kts 294°
2026-05-08 17:05 45.09697 25.03414 36007 ft 467 kts 294°
2026-05-08 17:05 45.12595 24.95120 36015 ft 467 kts 294°
2026-05-08 17:06 45.15458 24.86875 36009 ft 466 kts 294°
2026-05-08 17:06 45.18313 24.78629 36005 ft 466 kts 294°
2026-05-08 17:07 45.21165 24.70375 36004 ft 466 kts 294°
2026-05-08 17:07 45.24011 24.62111 36015 ft 466 kts 294°
2026-05-08 17:08 45.26848 24.53852 36018 ft 465 kts 294°
2026-05-08 17:08 45.29675 24.45597 36021 ft 465 kts 294°
2026-05-08 17:09 45.32494 24.37337 36020 ft 465 kts 294°
2026-05-08 17:09 45.35307 24.29068 36025 ft 465 kts 293°
2026-05-08 17:10 45.38113 24.20795 36030 ft 464 kts 293°
2026-05-08 17:10 45.40907 24.12532 36030 ft 463 kts 293°
2026-05-08 17:11 45.43691 24.04275 36039 ft 462 kts 293°
2026-05-08 17:11 45.46469 23.96006 36049 ft 462 kts 293°
2026-05-08 17:12 45.49234 23.87756 36039 ft 461 kts 293°
2026-05-08 17:12 45.51987 23.79511 36041 ft 460 kts 293°
2026-05-08 17:13 45.54737 23.71249 36058 ft 461 kts 293°
2026-05-08 17:13 45.57482 23.62977 36038 ft 461 kts 293°
2026-05-08 17:14 45.60201 23.54756 36053 ft 460 kts 292°
2026-05-08 17:14 45.62933 23.46470 36051 ft 461 kts 292°
2026-05-08 17:15 45.65675 23.38127 36050 ft 460 kts 292°
2026-05-08 17:15 45.68393 23.29832 36036 ft 461 kts 292°
2026-05-08 17:16 45.71100 23.21547 36040 ft 459 kts 292°
2026-05-08 17:16 45.73802 23.13248 36027 ft 459 kts 292°
2026-05-08 17:17 45.76499 23.04936 36018 ft 459 kts 292°
2026-05-08 17:17 45.79170 22.96679 36025 ft 459 kts 292°
2026-05-08 17:18 45.81850 22.88367 36015 ft 459 kts 292°
2026-05-08 17:18 45.84525 22.80046 36022 ft 459 kts 292°
2026-05-08 17:19 45.87197 22.71707 36021 ft 459 kts 292°
2026-05-08 17:19 45.89861 22.63367 36027 ft 459 kts 292°
2026-05-08 17:20 45.92513 22.55036 36025 ft 458 kts 292°
2026-05-08 17:20 45.95175 22.46647 36026 ft 458 kts 291°
2026-05-08 17:21 45.97811 22.38310 36020 ft 458 kts 291°
2026-05-08 17:21 46.00444 22.29956 36035 ft 458 kts 291°
2026-05-08 17:22 46.03063 22.21626 36017 ft 456 kts 291°
2026-05-08 17:22 46.05668 22.13309 36018 ft 455 kts 291°
2026-05-08 17:23 46.07829 22.06388 36018 ft 455 kts 291°
2026-05-08 17:23 46.10419 21.98066 36018 ft 455 kts 291°
2026-05-08 17:24 46.13004 21.89733 36019 ft 455 kts 291°
2026-05-08 17:24 46.15599 21.81344 36020 ft 455 kts 291°
2026-05-08 17:25 46.18159 21.73042 36018 ft 455 kts 291°
2026-05-08 17:25 46.20724 21.64693 36017 ft 455 kts 291°
2026-05-08 17:26 46.23285 21.56328 36013 ft 454 kts 291°
2026-05-08 17:26 46.25837 21.47968 35999 ft 454 kts 291°
2026-05-08 17:27 46.28381 21.39607 36000 ft 454 kts 290°
2026-05-08 17:27 46.30919 21.31236 36000 ft 454 kts 290°
2026-05-08 17:28 46.33450 21.22860 36004 ft 454 kts 290°
2026-05-08 17:28 46.35975 21.14475 36001 ft 454 kts 290°
2026-05-08 17:29 46.38493 21.06089 36011 ft 454 kts 290°
2026-05-08 17:29 46.41008 20.97681 36023 ft 454 kts 290°
2026-05-08 17:30 46.43514 20.89277 36014 ft 454 kts 290°
2026-05-08 17:30 46.46015 20.80859 36019 ft 454 kts 290°
2026-05-08 17:31 46.48511 20.72433 36017 ft 454 kts 290°
2026-05-08 17:31 46.51001 20.63995 36015 ft 455 kts 290°
2026-05-08 17:32 46.53484 20.55555 36026 ft 455 kts 289°
2026-05-08 17:32 46.55977 20.47050 36018 ft 454 kts 289°
2026-05-08 17:33 46.58443 20.38607 36018 ft 454 kts 289°
2026-05-08 17:33 46.60894 20.30191 36029 ft 454 kts 289°
2026-05-08 17:34 46.63347 20.21734 36023 ft 452 kts 289°
2026-05-08 17:34 46.65790 20.13285 36023 ft 452 kts 289°
2026-05-08 17:35 46.68222 20.04844 36021 ft 452 kts 289°
2026-05-08 17:35 46.70648 19.96394 36022 ft 452 kts 289°
2026-05-08 17:36 46.73068 19.87938 36022 ft 452 kts 289°
2026-05-08 17:36 46.75485 19.79461 36021 ft 453 kts 289°
2026-05-08 17:37 46.77898 19.70969 36020 ft 453 kts 289°
2026-05-08 17:37 46.80306 19.62465 36020 ft 453 kts 289°
2026-05-08 17:38 46.82710 19.53948 36023 ft 453 kts 289°
2026-05-08 17:38 46.85104 19.45431 36023 ft 454 kts 289°
2026-05-08 17:39 46.87502 19.36874 36027 ft 454 kts 289°
2026-05-08 17:39 46.89892 19.28314 36026 ft 454 kts 289°
2026-05-08 17:40 46.92275 19.19748 36024 ft 454 kts 288°
2026-05-08 17:40 46.94650 19.11182 36028 ft 454 kts 288°
2026-05-08 17:41 46.97022 19.02592 36026 ft 454 kts 288°
2026-05-08 17:41 46.99384 18.94012 36026 ft 454 kts 288°
2026-05-08 17:42 47.01741 18.85416 36028 ft 454 kts 288°
2026-05-08 17:42 47.04092 18.76812 36033 ft 454 kts 288°
2026-05-08 17:43 47.06435 18.68204 36031 ft 455 kts 288°
2026-05-08 17:43 47.08774 18.59580 36031 ft 455 kts 288°
2026-05-08 17:44 47.11106 18.50954 36035 ft 455 kts 288°
2026-05-08 17:44 47.13434 18.42309 36061 ft 455 kts 288°
2026-05-08 17:45 47.15752 18.33671 36035 ft 454 kts 288°
2026-05-08 17:45 47.18061 18.25035 36042 ft 454 kts 288°
2026-05-08 17:46 47.20360 18.16398 36042 ft 452 kts 288°
2026-05-08 17:46 47.22648 18.07780 36044 ft 452 kts 288°
2026-05-08 17:47 47.24931 17.99140 36050 ft 453 kts 288°
2026-05-08 17:47 47.26827 17.91944 36044 ft 453 kts 288°
2026-05-08 17:48 47.29484 17.81822 36058 ft 453 kts 288°
2026-05-08 17:48 47.31750 17.73154 36051 ft 453 kts 288°
2026-05-08 17:49 47.34009 17.64482 36039 ft 453 kts 287°
2026-05-08 17:49 47.36261 17.55804 36053 ft 453 kts 287°
2026-05-08 17:50 47.38507 17.47117 36058 ft 453 kts 287°
2026-05-08 17:50 47.40743 17.38431 36042 ft 453 kts 287°
2026-05-08 17:51 47.42976 17.29729 36050 ft 453 kts 287°
2026-05-08 17:51 47.45200 17.21025 36049 ft 452 kts 287°
2026-05-08 17:52 47.47417 17.12319 36055 ft 452 kts 287°
2026-05-08 17:53 47.50731 16.99242 36053 ft 452 kts 287°
2026-05-08 17:53 47.52928 16.90528 36061 ft 452 kts 287°
2026-05-08 17:54 47.54753 16.83266 36050 ft 453 kts 287°
2026-05-08 17:54 47.56944 16.74519 36051 ft 453 kts 287°
2026-05-08 17:55 47.59208 16.65799 36050 ft 454 kts 288°
2026-05-08 17:55 47.61527 16.57099 36056 ft 453 kts 288°
2026-05-08 17:56 47.63831 16.48389 36054 ft 453 kts 288°
2026-05-08 17:56 47.66113 16.39669 36054 ft 453 kts 287°
2026-05-08 17:57 47.68385 16.30936 36058 ft 453 kts 287°
2026-05-08 17:57 47.70649 16.22201 36058 ft 453 kts 287°
2026-05-08 17:58 47.72907 16.13456 36067 ft 453 kts 287°
2026-05-08 17:58 47.75161 16.04698 36066 ft 453 kts 287°
2026-05-08 17:59 47.77410 15.95922 36068 ft 453 kts 287°
2026-05-08 17:59 47.79651 15.87150 36068 ft 453 kts 287°
2026-05-08 18:00 47.81884 15.78369 36080 ft 453 kts 287°
2026-05-08 18:00 47.85223 15.65173 36074 ft 455 kts 287°
2026-05-08 18:01 47.87445 15.56350 36065 ft 455 kts 287°
2026-05-08 18:01 47.89659 15.47524 36073 ft 455 kts 287°
2026-05-08 18:02 47.91495 15.40183 36080 ft 455 kts 287°
2026-05-08 18:02 47.94078 15.29807 36072 ft 458 kts 287°
2026-05-08 18:03 47.96287 15.20897 36067 ft 458 kts 287°
2026-05-08 18:03 47.98490 15.11980 36065 ft 458 kts 287°
2026-05-08 18:04 48.00685 15.03055 36063 ft 457 kts 287°
2026-05-08 18:04 48.02877 14.94110 36064 ft 459 kts 287°
2026-05-08 18:05 48.05066 14.85136 36062 ft 460 kts 286°
2026-05-08 18:05 48.07253 14.76140 36061 ft 460 kts 286°
2026-05-08 18:06 48.09431 14.67143 36062 ft 460 kts 286°
2026-05-08 18:06 48.11600 14.58144 36056 ft 460 kts 286°
2026-05-08 18:07 48.13769 14.49107 36053 ft 461 kts 286°
2026-05-08 18:07 48.15934 14.40054 36051 ft 461 kts 286°
2026-05-08 18:08 48.18092 14.30994 36048 ft 461 kts 286°
2026-05-08 18:08 48.20241 14.21934 36052 ft 461 kts 285°
2026-05-08 18:09 48.22378 14.12887 36049 ft 460 kts 285°
2026-05-08 18:09 48.24603 14.03883 36059 ft 461 kts 288°
2026-05-08 18:10 48.27077 13.94992 36059 ft 462 kts 289°
2026-05-08 18:10 48.29564 13.86097 36059 ft 462 kts 288°
2026-05-08 18:11 48.32005 13.77176 36058 ft 461 kts 288°
2026-05-08 18:11 48.34435 13.68173 36058 ft 461 kts 288°
2026-05-08 18:12 48.36835 13.59232 36062 ft 461 kts 288°
2026-05-08 18:12 48.39230 13.50276 36063 ft 461 kts 288°
2026-05-08 18:13 48.41619 13.41311 36064 ft 461 kts 288°
2026-05-08 18:13 48.43998 13.32359 36061 ft 460 kts 288°
2026-05-08 18:14 48.46356 13.23448 36061 ft 460 kts 288°
2026-05-08 18:14 48.48735 13.14422 36060 ft 460 kts 288°
2026-05-08 18:15 48.51091 13.05447 36076 ft 460 kts 288°
2026-05-08 18:15 48.53442 12.96459 36067 ft 461 kts 288°
2026-05-08 18:16 48.55790 12.87450 36064 ft 461 kts 288°
2026-05-08 18:16 48.58127 12.78444 36063 ft 461 kts 288°
2026-05-08 18:17 48.60459 12.69421 36075 ft 461 kts 288°
2026-05-08 18:17 48.62782 12.60400 36066 ft 460 kts 288°
2026-05-08 18:18 48.65096 12.51379 36067 ft 460 kts 288°
2026-05-08 18:18 48.67407 12.42333 36070 ft 460 kts 288°
2026-05-08 18:19 48.69708 12.33290 36073 ft 460 kts 288°
2026-05-08 18:19 48.72003 12.24233 36079 ft 461 kts 288°
2026-05-08 18:20 48.74274 12.15139 36071 ft 461 kts 285°
2026-05-08 18:20 48.75710 12.05708 36074 ft 458 kts 278°
2026-05-08 18:21 48.76782 11.96174 36067 ft 458 kts 277°
2026-05-08 18:21 48.77786 11.86630 36060 ft 458 kts 277°
2026-05-08 18:22 48.78788 11.77070 36055 ft 460 kts 277°
2026-05-08 18:22 48.79797 11.67472 36051 ft 461 kts 277°
2026-05-08 18:23 48.80807 11.57868 36050 ft 461 kts 277°
2026-05-08 18:23 48.81802 11.48252 36049 ft 461 kts 277°
2026-05-08 18:24 48.82784 11.38636 36052 ft 461 kts 277°
2026-05-08 18:24 48.83665 11.30636 36051 ft 464 kts 282°
2026-05-08 18:25 48.84604 11.25956 36056 ft 466 kts 290°
2026-05-08 18:25 48.87924 11.17481 36053 ft 472 kts 308°
2026-05-08 18:26 48.92607 11.10414 36066 ft 475 kts 314°
2026-05-08 18:26 48.97490 11.03673 35650 ft 471 kts 315°
2026-05-08 18:27 48.99924 11.00335 35095 ft 470 kts 315°
2026-05-08 18:27 49.01559 10.98075 34703 ft 471 kts 315°
2026-05-08 18:27 49.04760 10.93614 33911 ft 471 kts 315°
2026-05-08 18:27 49.07170 10.90230 33218 ft 472 kts 315°
2026-05-08 18:28 49.09585 10.86832 32488 ft 472 kts 314°
2026-05-08 18:28 49.11987 10.83412 31750 ft 473 kts 314°
2026-05-08 18:28 49.14358 10.79925 31126 ft 471 kts 310°
2026-05-08 18:28 49.16467 10.76110 30934 ft 458 kts 306°
2026-05-08 18:29 49.18426 10.72362 30705 ft 458 kts 304°
2026-05-08 18:29 49.20425 10.68465 30442 ft 461 kts 305°
2026-05-08 18:29 49.22404 10.64582 30151 ft 463 kts 305°
2026-05-08 18:29 49.24356 10.60735 29867 ft 463 kts 305°
2026-05-08 18:30 49.26324 10.56839 29591 ft 462 kts 305°
2026-05-08 18:30 49.28285 10.52942 29296 ft 461 kts 305°
2026-05-08 18:30 49.30263 10.49002 28997 ft 460 kts 305°
2026-05-08 18:30 49.32181 10.45173 28758 ft 458 kts 305°
2026-05-08 18:31 49.34138 10.41260 28456 ft 454 kts 305°
2026-05-08 18:31 49.36045 10.37441 28026 ft 448 kts 305°
2026-05-08 18:31 49.37903 10.33713 27549 ft 443 kts 305°
2026-05-08 18:31 49.39790 10.29922 27083 ft 439 kts 305°
2026-05-08 18:32 49.41636 10.26206 26592 ft 435 kts 305°
2026-05-08 18:32 49.43464 10.22521 26096 ft 432 kts 305°
2026-05-08 18:32 49.45277 10.18863 25618 ft 429 kts 305°
2026-05-08 18:32 49.47074 10.15232 25134 ft 425 kts 305°
2026-05-08 18:33 49.48853 10.11631 24802 ft 419 kts 305°
2026-05-08 18:33 49.50594 10.08106 24614 ft 408 kts 305°
2026-05-08 18:33 49.52288 10.04671 24454 ft 398 kts 305°
2026-05-08 18:33 49.53943 10.01309 24251 ft 390 kts 305°
2026-05-08 18:34 49.55568 9.98001 23950 ft 385 kts 305°
2026-05-08 18:34 49.57175 9.94726 23570 ft 382 kts 305°
2026-05-08 18:34 49.58771 9.91471 23142 ft 379 kts 305°
2026-05-08 18:34 49.60358 9.88228 22635 ft 379 kts 305°
2026-05-08 18:35 49.61946 9.84981 22177 ft 377 kts 305°
2026-05-08 18:35 49.63520 9.81761 21738 ft 375 kts 305°
2026-05-08 18:35 49.65086 9.78551 21312 ft 373 kts 305°
2026-05-08 18:35 49.66643 9.75357 20903 ft 371 kts 305°
2026-05-08 18:36 49.68192 9.72175 20480 ft 370 kts 305°
2026-05-08 18:36 49.69734 9.69003 20060 ft 368 kts 305°
2026-05-08 18:36 49.71266 9.65850 19581 ft 364 kts 305°
2026-05-08 18:36 49.72763 9.62744 18745 ft 359 kts 304°
2026-05-08 18:37 49.74254 9.59657 17931 ft 355 kts 305°
2026-05-08 18:37 49.75708 9.56668 17479 ft 340 kts 305°
2026-05-08 18:37 49.77109 9.53778 16878 ft 332 kts 305°
2026-05-08 18:37 49.78463 9.50961 16350 ft 323 kts 304°
2026-05-08 18:38 49.79800 9.48168 15910 ft 321 kts 305°
2026-05-08 18:38 49.81123 9.45432 15531 ft 314 kts 305°
2026-05-08 18:38 49.82425 9.42741 15277 ft 311 kts 305°
2026-05-08 18:38 49.83714 9.40068 15047 ft 308 kts 305°
2026-05-08 18:39 49.84989 9.37415 14807 ft 306 kts 305°
2026-05-08 18:39 49.86118 9.34629 14511 ft 304 kts 294°
2026-05-08 18:39 49.86870 9.31580 14259 ft 302 kts 286°
2026-05-08 18:39 49.87476 9.28471 13989 ft 300 kts 285°
2026-05-08 18:40 49.88057 9.25393 13862 ft 294 kts 285°
2026-05-08 18:40 49.88624 9.22390 13755 ft 287 kts 285°
2026-05-08 18:40 49.89180 9.19455 13641 ft 280 kts 285°
2026-05-08 18:40 49.89723 9.16598 13558 ft 273 kts 285°
2026-05-08 18:41 49.90254 9.13801 13455 ft 267 kts 285°
2026-05-08 18:41 49.90779 9.11036 13142 ft 269 kts 285°
2026-05-08 18:41 49.91308 9.08240 12799 ft 271 kts 285°
2026-05-08 18:41 49.91954 9.05488 12487 ft 273 kts 299°
2026-05-08 18:42 49.93244 9.03333 12228 ft 275 kts 324°
2026-05-08 18:42 49.94939 9.01881 11995 ft 275 kts 332°
2026-05-08 18:42 49.96651 9.00645 11744 ft 274 kts 333°
2026-05-08 18:42 49.98390 8.99422 11508 ft 273 kts 333°
2026-05-08 18:43 50.00104 8.98081 11263 ft 271 kts 324°
2026-05-08 18:43 50.01483 8.96201 11012 ft 267 kts 306°
2026-05-08 18:43 50.02324 8.93634 10749 ft 262 kts 282°
2026-05-08 18:43 50.02354 8.90883 10494 ft 259 kts 256°
2026-05-08 18:44 50.01828 8.88222 10264 ft 257 kts 250°
2026-05-08 18:44 50.01235 8.85616 10096 ft 253 kts 250°
2026-05-08 18:44 50.00666 8.83064 9983 ft 247 kts 251°
2026-05-08 18:44 50.00119 8.80543 9745 ft 245 kts 251°
2026-05-08 18:45 49.99582 8.78031 9490 ft 244 kts 252°
2026-05-08 18:45 49.99054 8.75535 9225 ft 243 kts 252°
2026-05-08 18:45 49.98528 8.73037 8972 ft 243 kts 252°
2026-05-08 18:45 49.98002 8.70546 8714 ft 242 kts 251°
2026-05-08 18:46 49.97426 8.68096 8462 ft 241 kts 249°
2026-05-08 18:46 49.96825 8.65660 8205 ft 241 kts 249°
2026-05-08 18:46 49.96231 8.63243 8112 ft 239 kts 249°
2026-05-08 18:46 49.95643 8.60826 8104 ft 240 kts 249°
2026-05-08 18:47 49.95055 8.58400 8100 ft 240 kts 249°
2026-05-08 18:47 49.94857 8.57582 8100 ft 240 kts 249°